Temperature
1 1 1 1 1 1 1 1 1 0 1 1 2 2 2 2 2 2 2 2 2 2 2 3 3 3 3 3 3 3 3 3 3 3 3 3 3 3
1 1 1 1 1 0 0 0 0 -0 -0 1 1 1 1 1 1 1 1 1 2 2 2 2 2 2 2 2 2 2 2 3 2 3 3 3 3 3
0 0 0 0 -0 -0 -0 -0 -0 -0 -1 -0 0 0 0 0 0 1 1 1 1 1 1 1 1 2 2 2 2 2 2 2 2 2 2 2 2 2
-1 -1 -0 -1 -1 -1 -1 -1 -1 -1 -1 -1 -1 -1 -1 -0 -0 -0 -0 0 0 0 0 1 1 1 1 1 1 1 1 1 1 1 2 2 2 2
-1 -1 -1 -1 -1 -1 -1 -1 -1 -2 -2 -2 -2 -2 -2 -1 -1 -1 -1 -1 -1 -0 -0 -0 -0 -0 -0 0 0 0 0 0 1 1 1 1 1 1
-2 -2 -2 -2 -2 -2 -2 -2 -2 -2 -2 -2 -3 -3 -2 -2 -2 -2 -2 -2 -1 -1 -1 -1 -1 -1 -1 -1 -1 -0 -0 -0 -0 -0 0 0 0 0
-2 -2 -2 -2 -3 -3 -3 -3 -3 -3 -3 -3 -3 -3 -3 -3 -3 -3 -3 -3 -2 -2 -2 -2 -2 -2 -2 -2 -1 -1 -1 -1 -1 -1 -1 -0 -0 -0
-3 -3 -3 -3 -3 -3 -3 -3 -3 -3 -3 -3 -3 -3 -3 -3 -3 -4 -4 -3 -3 -3 -3 -3 -2 -2 -2 -2 -2 -2 -2 -2 -2 -2 -1 -1 -1 -1
-4 -4 -4 -4 -4 -4 -4 -4 -4 -4 -4 -4 -4 -4 -4 -4 -4 -4 -4 -4 -3 -3 -3 -3 -3 -3 -3 -3 -3 -3 -3 -3 -2 -2 -2 -2 -2 -2
-4 -4 -4 -4 -4 -4 -4 -5 -5 -4 -4 -4 -4 -4 -4 -4 -5 -5 -4 -4 -4 -4 -4 -4 -4 -4 -4 -4 -4 -3 -4 -4 -3 -3 -3 -3 -2 -2
-5 -5 -5 -5 -5 -5 -5 -5 -5 -5 -5 -5 -5 -5 -5 -5 -5 -5 -5 -5 -5 -5 -5 -5 -5 -5 -5 -5 -4 -4 -4 -4 -4 -4 -4 -4 -3 -3
-6 -6 -6 -6 -6 -6 -6 -6 -6 -5 -5 -5 -5 -5 -5 -5 -5 -6 -5 -5 -5 -5 -5 -5 -5 -6 -6 -5 -5 -5 -5 -5 -5 -5 -5 -4 -4 -4
-7 -6 -6 -6 -6 -6 -6 -6 -6 -6 -6 -6 -6 -6 -6 -6 -6 -6 -6 -6 -6 -6 -5 -6 -6 -6 -6 -6 -6 -6 -6 -6 -5 -5 -5 -5 -5 -5
-7 -7 -7 -7 -7 -7 -7 -6 -6 -6 -6 -6 -6 -6 -6 -6 -6 -6 -6 -6 -6 -6 -6 -6 -6 -6 -6 -7 -7 -6 -6 -6 -6 -6 -6 -6 -5 -5
-8 -8 -8 -8 -8 -7 -7 -7 -7 -7 -7 -7 -7 -7 -7 -7 -7 -7 -7 -7 -7 -7 -7 -7 -7 -7 -7 -7 -7 -7 -7 -7 -7 -7 -6 -7 -6 -6
-9 -9 -9 -8 -8 -8 -8 -8 -8 -8 -7 -7 -7 -7 -7 -7 -7 -7 -7 -7 -7 -7 -7 -7 -7 -7 -8 -8 -8 -8 -8 -8 -7 -7 -7 -7 -7 -7
-9 -9 -9 -9 -9 -9 -8 -8 -8 -8 -8 -8 -8 -8 -8 -8 -8 -8 -8 -8 -8 -8 -8 -8 -8 -8 -8 -8 -8 -8 -8 -8 -8 -8 -8 -8 -8 -7
-10 -10 -10 -9 -9 -9 -9 -9 -9 -9 -9 -9 -9 -9 -9 -9 -9 -9 -9 -8 -8 -8 -8 -8 -8 -9 -9 -9 -9 -9 -9 -9 -9 -9 -9 -8 -8 -8
-10 -10 -10 -10 -10 -10 -10 -10 -10 -9 -9 -9 -9 -9 -9 -9 -9 -9 -9 -9 -9 -9 -9 -9 -9 -9 -10 -10 -9 -9 -9 -9 -9 -9 -9 -9 -9 -8
-11 -11 -11 -11 -10 -10 -10 -10 -10 -10 -10 -10 -10 -10 -10 -10 -10 -10 -10 -10 -10 -10 -10 -10 -10 -10 -10 -10 -10 -10 -9 -10 -10 -10 -10 -9 -9 -9
-12 -11 -11 -11 -11 -11 -11 -10 -10 -10 -10 -10 -10 -10 -10 -10 -10 -10 -10 -10 -10 -10 -10 -10 -10 -10 -10 -11 -11 -11 -10 -10 -10 -10 -10 -10 -10 -10
-12 -12 -12 -12 -11 -11 -11 -11 -11 -11 -11 -11 -11 -11 -11 -11 -11 -11 -11 -11 -11 -11 -11 -11 -11 -11 -11 -11 -11 -11 -11 -11 -11 -10 -11 -11 -11 -11
-12 -12 -12 -12 -12 -12 -12 -12 -12 -12 -12 -11 -11 -11 -11 -11 -11 -11 -11 -11 -11 -11 -11 -12 -12 -12 -12 -12 -12 -12 -12 -11 -11 -11 -11 -11 -11 -11
Wind_Speed
6 5 4 4 3 3 3 4 4 4 5 4 2 3 5 6 7 7 7 8 8 8 8 8 8 8 8 8 8 8 8 8 8 8 7 7 7 8
5 6 5 4 4 3 4 4 4 5 5 3 3 3 5 6 8 7 8 9 9 8 9 9 9 9 9 9 9 9 9 9 9 8 8 8 8 8
7 7 7 5 5 4 4 4 4 4 6 5 3 3 4 4 5 7 7 8 8 9 9 10 10 10 10 10 11 11 10 9 9 9 9 9 9 8
8 8 8 7 7 6 5 6 5 5 5 7 4 3 4 5 5 5 6 8 8 9 10 11 11 11 11 10 11 11 11 10 10 9 9 9 10 10
9 9 9 8 9 7 7 7 6 6 5 6 6 4 4 4 4 4 5 5 7 8 10 10 10 11 11 11 11 11 11 10 10 10 10 9 10 10
9 9 9 10 10 9 8 8 7 6 6 6 6 5 4 4 4 4 4 4 4 6 8 9 10 11 11 10 10 10 11 10 11 11 10 10 10 10
9 9 10 11 13 11 9 8 8 7 6 6 7 6 5 5 5 4 6 4 4 4 4 5 6 6 8 9 9 10 10 10 11 11 10 10 10 11
8 8 9 11 14 16 17 15 13 10 9 8 7 8 8 6 5 5 5 4 5 4 4 5 5 4 6 8 9 9 10 10 11 11 11 11 11 11
8 8 8 9 12 10 13 16 15 16 15 10 10 10 8 7 7 7 6 6 6 4 4 5 4 5 6 9 9 9 10 10 10 10 11 12 12 11
8 8 9 8 9 10 9 10 10 11 13 11 10 10 9 8 9 9 7 5 4 4 4 5 4 4 6 8 10 10 10 10 10 9 10 10 10 11
8 8 9 9 13 14 10 9 9 9 12 15 15 13 14 14 11 6 6 6 6 5 4 3 4 3 3 4 8 10 10 11 11 11 11 10 10 10
7 8 11 11 14 14 10 9 11 9 7 7 9 10 10 12 14 11 8 8 5 4 4 4 3 2 3 4 5 7 8 10 11 10 10 10 10 8
7 6 7 12 15 15 13 10 12 9 6 7 6 6 6 7 8 9 9 8 7 5 4 4 3 3 3 3 3 4 5 5 6 8 10 11 11 9
7 6 7 12 13 14 12 12 14 11 6 6 6 6 6 6 6 8 9 9 8 7 7 6 4 4 4 4 4 3 3 5 5 6 7 10 10 11
7 10 11 13 13 11 13 14 11 7 6 6 7 7 6 5 5 5 6 6 5 6 8 8 5 4 4 5 5 4 4 4 5 5 6 6 6 7
7 9 12 13 11 10 9 9 7 7 7 7 6 5 4 4 4 4 4 4 3 3 4 7 6 6 5 5 5 5 4 4 4 5 5 5 7 7
6 5 5 5 5 5 5 5 5 6 7 6 5 5 5 5 5 4 4 4 4 5 4 3 4 5 5 4 5 6 5 5 5 5 4 5 6 7
7 5 5 6 6 6 5 5 5 5 5 5 5 5 5 5 5 4 4 5 5 5 4 3 3 2 3 4 6 7 6 6 5 4 4 5 7 7
5 5 5 5 5 5 5 5 5 5 5 5 5 5 5 5 5 5 5 5 5 5 5 4 4 5 6 7 5 7 6 5 4 5 5 6 7 7
4 5 5 5 5 5 5 5 5 5 5 5 5 6 5 5 5 6 6 6 6 5 5 5 6 6 7 7 5 5 8 6 5 6 6 6 7 10
5 5 4 4 4 4 5 5 5 5 5 5 5 6 6 5 6 6 6 8 7 6 7 7 7 7 3 2 4 5 5 8 9 6 5 5 6 7
5 4 4 4 4 4 4 4 5 5 5 5 5 6 6 6 7 7 7 7 7 6 6 4 3 4 3 5 7 6 6 5 7 11 12 11 6 6
4 4 4 4 4 4 4 5 6 5 5 5 5 5 6 6 6 6 6 7 6 6 5 4 4 4 5 6 6 6 6 6 5 5 7 11 13 16
Wind_Direction
222 225 223 226 223 216 208 200 209 239 246 233 222 218 219 221 230 238 248 255 263 265 267 266 264 265 267 270 273 276 277 279 283 284 282 275 268 271
218 217 222 224 221 220 216 217 216 222 243 233 232 229 229 235 237 240 249 257 259 261 264 265 262 262 264 265 266 268 269 270 272 276 276 276 268 267
221 220 223 219 219 221 221 222 226 225 246 258 251 230 218 234 243 241 247 250 251 255 259 262 263 263 264 265 264 263 263 265 265 267 271 277 271 269
220 220 222 221 221 221 221 224 227 228 237 254 258 241 236 227 228 231 248 248 250 255 259 262 263 265 266 260 262 259 257 258 260 262 265 270 273 269
222 221 220 214 222 223 220 223 226 234 232 243 255 247 248 237 240 247 245 245 250 253 257 263 265 267 268 269 259 256 253 254 256 258 262 265 273 272
228 226 222 217 220 219 224 222 222 227 228 234 245 246 247 239 229 241 248 237 246 251 254 262 268 271 272 269 262 258 253 253 256 258 260 262 268 268
232 231 230 228 227 226 228 220 217 224 226 232 239 240 240 233 232 232 245 245 252 238 244 251 256 258 263 267 263 259 255 254 255 260 261 263 267 269
239 235 236 234 235 237 239 235 229 225 225 230 238 236 234 235 234 236 241 248 255 230 233 251 236 244 251 251 261 266 261 258 261 260 260 264 266 269
241 238 241 238 237 232 238 239 238 237 233 230 235 235 233 226 226 232 234 238 246 229 226 249 235 250 244 248 257 265 270 273 272 272 265 264 266 268
243 238 236 236 234 233 232 234 234 235 236 235 236 237 234 222 220 229 233 245 260 236 216 243 241 252 248 241 251 258 268 273 274 275 275 271 272 274
248 243 239 236 239 236 233 233 239 244 245 242 241 239 237 234 227 224 225 233 251 247 221 227 245 259 252 242 243 253 263 269 274 278 275 279 277 280
250 243 243 244 243 236 229 228 235 238 232 237 239 240 236 233 231 223 221 227 241 241 219 214 230 234 260 254 229 241 252 263 268 273 279 283 281 280
253 245 240 246 249 244 239 233 237 236 227 227 230 230 229 226 223 223 220 222 226 235 214 202 221 226 239 265 268 242 236 247 258 268 274 277 278 279
255 250 245 247 250 251 246 242 241 239 229 223 227 230 229 226 220 214 218 223 225 231 214 204 225 225 233 256 267 268 246 245 251 259 262 274 276 277
260 258 255 253 253 252 249 246 241 233 222 223 228 230 226 222 214 209 207 211 224 228 216 215 215 220 223 242 254 259 269 262 246 250 255 259 266 272
266 262 261 259 255 250 245 244 234 223 219 223 224 224 213 210 212 211 215 210 223 242 227 221 221 216 234 242 247 254 248 249 252 255 256 262 265 265
261 257 250 247 242 240 236 234 228 222 225 219 218 217 217 218 221 212 213 213 225 231 232 224 221 227 229 237 249 251 251 257 257 258 268 271 267 263
265 249 244 239 236 234 232 229 225 221 218 214 213 215 218 218 220 219 218 216 225 230 229 219 212 239 271 269 241 245 249 254 258 252 259 269 275 270
263 252 245 241 237 231 229 227 226 222 213 212 214 214 216 217 216 219 223 223 229 230 228 219 212 213 237 259 257 231 235 250 255 261 259 260 269 273
256 254 249 242 238 234 229 227 224 218 214 213 212 211 211 214 219 221 222 225 229 230 228 225 221 219 228 246 260 262 243 241 248 257 265 268 271 276
265 259 254 246 241 237 233 227 222 218 215 212 211 210 211 211 218 222 223 228 232 229 230 232 230 228 228 244 264 268 260 249 249 249 255 267 278 281
273 265 261 258 247 240 235 228 224 220 216 216 216 215 214 215 218 220 222 225 228 230 236 238 219 212 218 235 251 264 274 274 268 266 260 256 252 254
280 274 267 260 251 242 236 230 227 225 221 219 220 220 218 220 222 223 224 226 227 228 230 232 230 230 234 235 246 257 262 268 272 277 272 266 266 267
Height
1504 1506 1507 1509 1510 1512 1513 1514 1515 1514 1513 1514 1516 1517 1518 1519 1519 1520 1520 1520 1520 1520 1521 1521 1521 1521 1521 1521 1521 1522 1522 1522 1523 1523 1523 1523 1524 1525
1498 1499 1501 1502 1504 1506 1507 1508 1509 1509 1508 1508 1510 1512 1512 1513 1514 1514 1514 1515 1515 1515 1515 1515 1515 1515 1515 1515 1515 1515 1516 1517 1517 1517 1518 1518 1519 1519
1491 1492 1494 1496 1497 1499 1501 1502 1503 1504 1503 1502 1504 1506 1507 1507 1507 1508 1509 1509 1509 1509 1509 1509 1509 1509 1509 1509 1509 1509 1509 1510 1511 1511 1512 1512 1513 1513
1484 1486 1487 1489 1490 1492 1494 1495 1496 1497 1498 1496 1497 1499 1500 1501 1501 1502 1502 1503 1503 1503 1503 1503 1503 1503 1502 1502 1502 1502 1503 1504 1504 1505 1506 1506 1507 1507
1477 1478 1480 1482 1483 1485 1487 1488 1489 1491 1491 1491 1491 1492 1493 1494 1495 1495 1496 1496 1496 1497 1497 1497 1497 1497 1496 1495 1495 1496 1497 1497 1498 1499 1500 1500 1501 1501
1470 1472 1473 1474 1476 1478 1479 1481 1482 1483 1484 1485 1485 1485 1486 1487 1488 1488 1488 1489 1489 1490 1490 1491 1490 1490 1490 1489 1490 1490 1491 1491 1492 1493 1493 1493 1494 1495
1463 1464 1466 1467 1469 1471 1472 1473 1475 1476 1477 1477 1478 1479 1479 1480 1481 1482 1482 1482 1483 1484 1483 1484 1484 1484 1484 1484 1484 1484 1485 1485 1486 1486 1486 1487 1487 1488
1455 1457 1458 1460 1461 1463 1465 1466 1468 1469 1469 1470 1470 1471 1471 1473 1475 1476 1476 1476 1475 1477 1478 1477 1478 1478 1478 1478 1478 1479 1479 1479 1479 1480 1480 1480 1481 1481
1448 1450 1451 1452 1454 1455 1457 1458 1460 1461 1462 1463 1463 1463 1465 1466 1468 1469 1469 1470 1469 1471 1471 1470 1471 1471 1472 1472 1472 1473 1473 1472 1473 1473 1473 1474 1474 1474
1441 1442 1443 1444 1446 1448 1449 1450 1450 1452 1453 1455 1456 1456 1458 1460 1461 1462 1463 1464 1464 1464 1465 1464 1464 1465 1466 1466 1466 1466 1466 1467 1467 1467 1467 1467 1467 1467
1434 1435 1436 1437 1438 1440 1442 1442 1443 1444 1446 1447 1449 1450 1451 1453 1455 1456 1456 1457 1456 1456 1457 1458 1458 1458 1459 1459 1460 1460 1461 1461 1461 1460 1460 1460 1461 1461
1426 1427 1428 1429 1431 1433 1434 1435 1435 1436 1438 1439 1441 1442 1444 1445 1447 1449 1449 1450 1450 1450 1451 1452 1452 1453 1452 1452 1454 1454 1454 1454 1454 1454 1454 1454 1454 1454
1419 1419 1420 1422 1424 1425 1427 1427 1428 1430 1432 1433 1433 1435 1436 1437 1438 1440 1442 1444 1444 1444 1445 1447 1447 1447 1448 1447 1447 1448 1448 1448 1448 1448 1448 1448 1448 1448
1412 1413 1413 1415 1416 1418 1419 1420 1422 1424 1424 1425 1426 1427 1428 1429 1431 1433 1435 1437 1438 1439 1440 1441 1441 1442 1442 1441 1441 1441 1442 1442 1442 1442 1441 1441 1441 1442
1406 1406 1407 1408 1409 1410 1411 1413 1415 1416 1416 1417 1418 1419 1421 1423 1425 1427 1428 1430 1431 1432 1433 1434 1435 1436 1436 1436 1435 1435 1436 1436 1436 1436 1435 1435 1435 1435
1399 1399 1400 1401 1402 1402 1403 1405 1406 1408 1409 1410 1411 1413 1415 1417 1419 1420 1421 1422 1423 1424 1426 1428 1429 1430 1430 1430 1430 1429 1430 1430 1430 1430 1429 1429 1429 1428
1393 1393 1393 1393 1394 1395 1396 1397 1398 1400 1402 1404 1405 1407 1409 1410 1412 1414 1415 1416 1416 1417 1418 1421 1422 1423 1424 1424 1423 1423 1424 1424 1424 1424 1423 1422 1422 1422
1387 1386 1386 1386 1387 1388 1389 1390 1392 1393 1395 1397 1399 1401 1402 1404 1405 1407 1409 1409 1410 1411 1412 1414 1416 1417 1417 1417 1418 1417 1418 1418 1418 1418 1417 1416 1414 1415
1380 1379 1379 1380 1381 1382 1383 1384 1385 1387 1389 1391 1393 1394 1396 1398 1399 1401 1402 1403 1404 1405 1406 1408 1409 1410 1410 1409 1410 1412 1412 1411 1412 1411 1411 1410 1408 1407
1374 1374 1374 1374 1375 1376 1377 1378 1379 1381 1383 1384 1386 1388 1390 1391 1392 1394 1395 1397 1398 1399 1400 1402 1403 1403 1404 1404 1403 1404 1406 1405 1405 1405 1404 1403 1402 1401
1369 1369 1369 1369 1370 1371 1371 1372 1374 1375 1376 1378 1380 1381 1383 1385 1386 1387 1389 1390 1392 1392 1393 1394 1396 1398 1398 1399 1398 1396 1397 1399 1399 1399 1398 1396 1394 1393
1365 1364 1364 1365 1365 1365 1366 1367 1368 1369 1370 1371 1373 1375 1376 1378 1379 1381 1382 1384 1385 1385 1386 1388 1390 1391 1392 1392 1391 1390 1390 1391 1392 1392 1392 1391 1389 1386
1361 1360 1360 1360 1360 1360 1361 1361 1362 1363 1364 1365 1367 1368 1370 1371 1373 1374 1376 1377 1378 1379 1380 1381 1383 1384 1385 1385 1385 1384 1384 1384 1384 1383 1383 1383 1382 1381